Погода Узловая

Погода Узловая : погода сейчас, прогноз погоды и архив. Всё, что Вы хотите узнать о погоде Узловая!

Поиск расширенной информации на нашем сайте:

Другие новости

Новости СМИ2

Главная страница сайта

Новости сайта

03.07.2017

Напоминаем, что на нашем специализированном сайте Метеоцентр.Азия вы можете получить высокодетализированные автоматические прогнозы погоды по пунктам России, СНГ и мира в авиационном формате (включающие направление и скорость ветра, видимость, явления погоды, количество и форму облачности, нижнюю и верхнюю границу облачности).

Рекомендуем: кровмаркет отзывы

Погода Узловая - сегодня

Время (UTC), дата Ветер
(°,м/с) 
Видим.   Явления Облачность Т
(°С)
Тd
(°С)
f(%) Тe
(°С)
Pmin
(гПа)
dP
(гПа)
Po
(мм)
O2
(г/м3)
Тmin Tmax R s Состояние
почвы
12 18.06.18 020 (С) 20000 м    3/3 1000 м 
[Cu hum]
+27.4 +6.8 27 +27  1015.9  -0.8  742  271           
15 18.06.18 тихо ()   20000 м    3/3 1000 м 
[Cu hum]
+26.6 +5.2 25 +27  1015  -1  742  271           
21 18.06.18 тихо ()   20000 м    3/0 верхняя 
[Ci sp]
+14.4 +9.4 72 +15  1016.1  0.1  742  282           
00 19.06.18 тихо ()   н/о    н/о 
+11.4 +9.3 87 +12  1016.5  0.1  742  285           
09 19.06.18 250 (З) 20000 м    9/8 1000 м средняя 
[Sc|Ac trans]
+24 +10.4 42 +26  1014.3  -0.5  741  273           
12 19.06.18 240 (ЮЗ) 20000 м    8/4 600 м средняя, верхняя 
[Cu med, cong|Ac trans|Ci fib]
+26.2 +12.1 41 +31  1012.8  -1.2  740  270           
15 19.06.18 280 (З) 20000 м    6/3 1000 м верхняя 
[Sc|Ci fib]
+26.9 +10.8 37 +29  1011.3  -1.4  739  269           
21 19.06.18 240 (ЮЗ) 20000 м    8/0 верхняя 
[Ci fib]
+18.4 +12.9 70 +26  1011.2  -0.5  738  276           
00 20.06.18 190 (Ю) 10 км    9/5 300 м кучево-дожд., средняя 
[Cb cap|Ac trans]
+15.6 +12.8 83 +22  1010.5  -0.9  738  279           
06 20.06.18 280 (З) 4{10}  20000 м  {ливн. осадки}  6/4 1000 м средняя, верхняя 
[Cu hum|Ac trans|Ci sp]
+20.4 +10.2 52 +22  1011.3  0.8  739  275  +15.5         
21 20.06.18 260 (З) 20000 м    3/3 600 м верхняя 
[Sc|Ci sp]
+14.2 +7.6 64 +15  1013.4  0.7  740  282           
00 21.06.18 260 (З) 10 км    1/0 верхняя 
[Ci sp]
+10.9 +7.8 81 +12  1014.3  0.5  740  285           
09 21.06.18 260 (З) 20000 м    ясно 
+23.3 +4.6 30 +23  1013.4  -0.8  740  274           
21 21.06.18 тихо ()   20000 м    ясно 
+14.2 +10.7 79 +17  1014.2  0.5  740  282           
00 22.06.18 тихо ()   10 км    3/0 средняя, верхняя 
[Ac lent|Ci fib]
+12.8 +9.8 82 +14  1014.1  -0.2  740  283           
09 22.06.18 170 (Ю) 4{10}  20000 м    6/4 1000 м верхняя 
[Cu hum|Ci fib]
+27.6 +10.8 35 +30  1011.2  -0.9  739  268           
21 22.06.18 200 (Ю) 20000 м    4/0 верхняя 
[Ci sp]
+20.2 +12.8 62 +26  1010.2  0.4  738  274           
00 23.06.18 270 (З) 20000 м    6/4 600 м верхняя 
[Sc|Ci sp]
+18.9 +12.7 67 +25  1011  0.6  738  276           
03 23.06.18 тихо ()   н/о    н/о 
+18.5 +14 75 +26  1011  738  276  +15.9         
09 23.06.18 150 (ЮВ) 20000 м    4/3 1000 м верхняя 
[Cu hum|Ci sp]
+30.5 +9.8 28 +32  1009.5  -0.4  738  266           
21 23.06.18 120 (ЮВ) 20000 м    9/3 600 м кучево-дожд., верхняя 
[Cb cap|Ci sp]
+23.2 +11 46 +26  1007.7  -0.4  736  271           
00 24.06.18 150 (ЮВ) 20000 м    6/1 600 м кучево-дожд., средняя, верхняя 
[Cb cap|Ac lent|Ci sp]
+19.3 +11.8 62 +25  1007.6  -0.4  736  275           
09 24.06.18 160 (Ю) 20000 м    10/5 600 м кучево-дожд., средняя 
[Cb cap|Ac As]
+25.2 +13.9 50 +32  1008.2  1.1  737  269           
12 24.06.18 280 (З) 20000 м    10/6 600 м кучево-дожд., средняя 
[Cb cap|Ac As]
+25 +15.2 55 +35  1008.5  0.3  737  269           
21 24.06.18 280 (З) 10 км  {ливн. осадки}  8/4 600 м кучево-дожд., средняя 
[Cb cap|Ac trans]
+13.5 +11.9 90 +18  1014.3  0.7  740  282           
Время (UTC), дата Ветер
(°,м/с) 
Видим.   Явления Облачность Т
(°С)
Тd
(°С)
f(%) Тe
(°С)
Pmin
(гПа)
dP
(гПа)
Po
(мм)
O2
(г/м3)
Тmin Tmax R s Состояние
почвы

Для получения пояснительной информации подведите курсор к названию столбца.

ПОГОДА Узловая - архив

Всё, что Вы хотите узнать о погоде Узловая - удобно и подробно!

Выберите нужную дату (начиная с 1 января 2015* года) и нажмите кнопку "Найти".
Будут отображены архивные сводки погоды по пункту Узловая, начиная с указанной даты.


Отображать данные в формате CSV (для использования в таблицах Excel)


Внимание! Наш архив погоды предназначен исключительно для личного некоммерческого использования в познавательных целях. Если Вам необходимы официальные справки о состоянии погоды (для производственных, юридических, коммерческих и т.п. целей), обращайтесь в органы Росгидромета.

*Примечание: данная дата относится к архиву по метеостанциям СССР (Россия, СНГ, Балтия).
Архив по метеостанциям Зарубежной Европы и Азии (кроме Китая) хранится 10 дней, по другим регионам земного шара (Китай, Африка, Америка, Австралия, Океания) - 1 день.

Узловая - район местоположения метеостанции


Название, широта, долгота, высота метеостанции:
Узловая 54°ш. 38.1°д. 231 м над ур. моря [Российская Федерация]

Дополнительная информация

В oтличие oт бoльшинства пoгoдных сайтoв мы публикуем пoдрoбную метеoинфoрмацию в детальнoм прoфессиoнальнoм фoрмате.

Характеристики температуры и влажнoсти вoздуха измеряются на высoте 2 м в тени вдали oт зданий и деревьев.
Скoрoсть ветра измеряется на высoте 10 м (на урoвне рoста челoвека скoрoсть ветра ниже в 1.5-2 раза). Если метеoстанция нахoдится в гoрoде или в лесу, тo скoрoсть ветра занижена на 2-4 м/с пo сравнению с oткрытым местoм. Скoрoсть ветра над акватoриями крупных рек и oзёр, а также на вершинах хoлмoв на 2-5 м/с выше, чем в oбычных услoвиях.
Атмoсфернoе давление в разных тoчках местнoсти мoжет значительнo oтличаться oт давления на метеoстанции, в зависимoсти oт услoвий рельефа (при пoдъёме на 10 м давление пoнижается примернo на 1 мм рт.ст.).